Location: Ayer Observatory
(42.2600°N, 71.0700°W)
Time: 00:06:56
(UTC-04:00)

XW-2A - Pass Details

Date: 11 August 2020
Orbit: 428 x 443 km, 97.3° (Epoch: 26 September)

Event Time Altitude Azimuth Distance (km) Brightness Sun altitude
Exits shadow 21:34:43 16° 202° (SSW) 1,192 ? -17.5°
Maximum altitude 21:36:52 35° 262° (W) 712 ? -17.8°
Drops below altitude 10° 21:39:55 10° 330° (NNW) 1,534 ? -18.2°
Sets 21:42:02 0° 340° (NNW) 2,406 ? -18.5°
